User: anonymous   Login
Location: ????
(33.1659°N, 35.6604°E)
Time: 10:12:28
(UTC+00:00)
Language:

CZ-2D R/B - Orbit

View from above orbital plane
View from above orbital plane
View from above satellite
View from above satellite

Ground track
Ground track

The orbit data is extracted from the following two-line orbital elements,

1 28738U 05024B   19318.49929458  .00000334  00000-0  23128-4 0  9991
2 28738  97.4027 343.0081 0011314 202.5497 157.5238 15.11905594788797
Epoch (UTC): 14 November 2019 11:58:59
Eccentricity: 0.0011314
inclination: 97.4027°
perigee height: 522 km
apogee height: 538 km
right ascension of ascending node: 343.0081°
argument of perigee: 202.5497°
revolutions per day: 15.11905594
mean anomaly at epoch: 157.5238°
orbit number at epoch: 78879

The dashed part of the orbit path shows where the satellite is in the earth's shadow,  

DLR